sat.trackr.live / text

‹ back to catalog

IRIDIUM 120

NORAD 42805 · 2017-039C

PAYLOAD ACTIVE UNKNOWN

§ Identity

Operator
Country
US
Launch date
2017-06-25
Launch site
AFWTR
Launch vehicle
Mass (kg)
RCS (m²)

Purposes: comms

External: N2YO · Heavens-Above · Gunter

§ Orbital elements

Epoch: 2026-09-19T21:50:15.126720Z

Period
100.40 min
Inclination
86.3907°
Eccentricity
0.0002142
Mean motion
14.34217704 rev/d
Perigee alt
776.1 km
Apogee alt
779.2 km
Semi-major
7,155.8 km
B*
1.0473e-5
RAAN
282.3524°
Arg perigee
90.8873°
Mean anomaly
269.2568°
Rev number
48,475

§ Raw data

IRIDIUM 1201 42805U 17039C   26262.90989730  .00000049  00000+0  10473-4 0  99932 42805  86.3907 282.3524 0002142  90.8873 269.2568 14.34217704484753

JSON: /api/v1/satellites/42805 · /tle

For live sub-satellite position, see the globe view (requires WebGL).

§ Visibility from observer

Set your observer location to see the next 7 days of passes ≥ 10°. The values pass through the URL so the page stays shareable.

No JS? Fill the form by hand. The geolocation button needs JavaScript.